Wind_Speed
12 12 12 12 13 13 12 11 10 10 9 10 10 11 12 13 11 8 9 8 13 16 12 10 12 14 15 22 23 20 13 16 23 20 18 24 18 28 25 28 22 24 13 5 8
14 13 13 13 14 14 14 12 11 10 10 11 12 12 13 16 14 6 8 10 14 14 5 9 14 15 20 20 26 20 17 24 21 19 16 18 14 18 21 25 28 26 7 4 3
16 16 15 15 15 14 15 14 12 10 11 12 12 11 13 15 9 5 7 5 11 9 7 11 14 15 23 25 28 26 24 23 26 27 24 24 22 16 20 21 28 16 19 10 9
17 17 16 16 15 15 15 15 13 11 12 12 13 11 11 7 3 4 6 9 5 10 6 11 13 18 19 21 26 25 33 33 33 34 29 24 26 19 23 26 32 23 31 16 16
19 19 18 18 17 15 14 15 13 12 12 12 13 11 7 6 1 4 8 10 9 6 8 9 13 17 20 18 25 28 27 37 38 35 37 33 28 25 27 29 33 33 26 28 24
19 19 19 18 17 15 14 15 14 14 13 12 10 9 5 12 1 2 6 6 7 8 9 9 11 15 18 21 21 26 32 32 37 37 36 31 28 27 36 29 31 34 33 23 23
20 20 20 19 17 15 13 14 14 16 13 8 5 8 9 8 1 4 5 7 8 9 10 10 12 11 14 18 21 26 26 25 27 33 30 35 27 31 34 32 32 32 35 35 26
22 21 22 21 18 15 13 13 15 14 11 5 3 4 8 4 2 4 7 9 9 10 11 12 11 15 17 19 26 22 22 22 23 28 29 25 28 29 35 33 30 33 34 34 35
26 24 21 20 17 14 12 12 12 12 4 3 0 2 5 2 2 6 9 9 9 10 12 12 10 15 17 15 16 17 21 26 29 24 26 27 32 27 38 35 30 30 32 36 35
29 26 23 20 16 13 11 12 12 8 5 4 8 7 9 3 5 10 7 8 11 11 13 12 16 13 13 12 17 19 21 21 26 24 26 27 31 30 33 29 32 34 40 35 38
28 27 22 18 14 10 7 5 5 2 9 14 14 14 11 4 8 7 5 7 10 9 12 11 12 14 17 17 21 22 23 28 27 27 27 23 28 27 28 32 32 30 34 40 37
28 28 20 15 10 4 7 9 8 10 12 14 14 12 9 7 6 8 6 7 12 13 15 14 15 16 18 19 22 23 25 28 27 26 22 26 31 30 25 25 35 34 32 37 38
26 26 15 10 8 6 5 5 9 12 8 5 2 7 8 6 10 14 9 11 14 15 15 16 19 20 21 21 23 25 22 24 27 24 22 26 30 30 30 27 34 38 40 36 41
25 23 10 8 6 7 2 10 10 10 5 8 8 3 5 6 14 2 8 7 11 16 16 15 19 20 18 21 19 21 21 25 26 23 17 21 21 23 23 26 27 28 33 37 37
26 20 6 7 9 8 10 11 12 3 3 5 8 4 5 9 13 10 3 10 16 19 17 18 18 19 23 21 26 24 21 21 23 22 23 25 16 19 24 27 24 23 29 34 37
26 18 3 5 7 8 11 12 5 5 1 6 2 4 9 11 15 6 11 14 23 21 16 16 13 18 19 25 28 21 16 21 21 19 20 27 22 23 22 25 25 25 36 31 32
23 14 4 2 8 11 12 9 5 5 5 4 8 11 13 16 7 9 7 16 12 9 14 16 17 4 9 12 19 14 15 14 16 14 19 25 25 24 20 29 30 24 26 34 35
18 7 3 4 6 10 10 9 5 12 12 13 11 16 18 2 7 7 14 14 3 2 10 11 15 12 13 15 17 20 19 8 9 15 17 22 14 21 24 34 36 32 14 11 39
8 5 3 1 4 8 11 5 4 10 11 11 14 12 10 10 11 12 14 11 8 10 10 12 15 20 21 18 13 18 16 18 17 19 14 10 21 23 22 29 22 21 9 3 3
14 3 2 1 5 5 6 10 12 10 9 11 13 8 14 16 14 14 16 11 10 11 10 16 20 19 20 20 16 19 19 16 6 5 8 14 16 11 21 23 21 22 19 11 8
8 5 1 1 4 7 5 11 12 15 10 6 13 14 14 14 14 15 17 16 15 14 18 21 12 17 19 19 16 14 15 16 11 10 13 10 11 12 21 18 17 25 16 15 9
7 3 2 6 4 5 7 5 10 10 8 9 12 13 10 13 16 15 18 12 15 18 15 13 6 15 21 24 14 17 21 1 4 14 11 7 15 11 14 21 27 26 24 20 9
9 7 1 3 3 6 11 12 14 5 9 9 11 14 11 15 13 10 16 19 16 14 8 5 5 13 13 9 8 10 20 18 6 14 16 14 13 17 24 31 41 14 11 12 5
7 4 5 8 6 8 12 13 9 7 5 8 11 15 12 13 13 12 18 7 11 17 21 7 13 16 13 19 9 9 19 19 11 9 15 13 18 16 21 24 31 36 10 7 3
7 5 6 6 10 12 11 15 14 11 7 9 11 10 14 13 17 18 18 21 19 22 12 2 9 15 18 21 23 18 22 23 25 22 17 16 15 6 4 8 21 28 36 2 4
8 8 11 18 14 10 8 13 13 14 13 13 14 12 9 13 16 24 23 18 15 14 8 6 9 15 20 20 21 19 24 23 20 24 23 19 16 7 23 12 31 35 18 8 7
8 6 6 10 9 11 8 8 14 12 10 12 16 18 18 17 24 25 28 31 23 15 17 9 8 10 17 16 19 13 1 9 19 23 23 14 16 15 8 9 16 25 17 14 13
Wind_Direction
358 355 350 345 343 340 336 329 326 332 337 337 332 326 323 320 306 261 273 241 237 265 279 269 262 262 250 245 238 233 244 251 251 250 259 277 282 296 299 308 250 251 225 62 70
352 347 342 340 340 342 338 331 324 328 330 332 333 331 328 322 312 278 220 264 280 280 250 283 263 252 243 241 231 231 239 243 253 273 284 269 262 285 287 288 287 241 209 82 196
350 344 339 334 332 333 334 333 328 328 333 335 339 334 328 325 322 151 217 291 312 307 288 284 269 264 259 242 238 232 244 245 250 254 268 283 288 260 270 265 266 262 271 201 235
350 345 341 334 326 323 324 328 326 324 331 331 334 330 327 318 349 178 314 328 23 17 309 284 265 248 250 250 247 252 247 246 254 260 268 271 278 266 270 274 276 263 234 202 216
347 346 345 341 332 323 318 321 320 320 325 324 327 325 339 264 63 331 349 349 358 310 297 285 273 269 256 251 250 248 252 259 258 254 259 260 257 265 254 259 271 278 265 201 200
341 340 340 340 335 327 318 318 316 318 321 320 317 317 328 277 46 339 333 313 303 294 294 289 283 286 296 286 276 268 261 258 255 259 254 255 257 255 253 252 262 270 276 261 205
338 335 334 335 332 325 318 316 315 317 316 311 294 300 284 273 298 311 316 310 309 299 292 288 296 303 300 299 276 272 274 275 263 256 255 253 252 248 255 246 246 255 264 270 258
341 334 330 331 328 324 319 318 322 320 314 301 287 284 263 178 280 311 317 308 304 293 287 285 283 277 277 278 282 279 275 266 256 247 255 260 255 244 251 251 251 250 258 261 261
346 339 331 326 321 319 315 314 316 323 316 257 188 202 249 253 206 319 314 308 311 307 291 279 271 271 280 272 270 249 257 261 268 257 251 237 253 252 243 241 249 249 252 253 257
348 343 335 328 323 317 317 304 303 303 328 295 264 250 252 257 332 317 316 306 307 311 304 258 243 251 253 245 258 268 259 256 256 260 269 265 240 249 248 246 232 242 251 252 241
346 345 341 338 331 335 3 336 306 239 244 267 290 267 289 274 305 309 317 314 293 260 278 307 301 281 290 285 279 282 278 274 275 286 293 279 263 265 239 233 249 226 236 249 254
345 347 346 351 358 37 10 349 9 326 303 269 259 261 261 274 286 304 303 294 313 306 304 289 275 284 283 272 264 270 275 275 283 287 289 287 280 278 267 245 231 234 229 246 249
341 347 349 9 46 20 357 359 337 326 280 299 239 222 225 235 266 282 293 295 301 307 305 298 294 300 297 277 274 273 265 267 274 281 286 281 276 269 270 272 259 229 223 227 246
338 344 346 345 346 341 311 331 326 322 274 131 187 178 223 257 270 331 257 291 291 290 295 297 293 290 295 294 281 276 274 274 278 280 271 271 275 261 262 261 263 251 226 217 230
339 339 328 355 325 360 324 326 315 274 248 166 118 121 255 243 284 298 204 255 264 281 290 289 297 308 307 265 263 277 291 285 288 282 279 260 262 264 268 253 252 255 255 216 217
341 334 295 345 327 331 326 322 314 243 202 150 163 241 266 300 290 303 258 272 272 269 272 282 327 295 298 309 295 276 289 282 282 280 265 264 255 258 253 262 259 228 244 245 216
342 332 241 277 337 328 324 307 254 261 130 70 349 323 316 281 337 304 308 280 300 330 316 308 306 327 325 275 282 267 262 272 267 261 260 257 248 256 255 257 265 267 241 233 230
347 352 218 229 311 323 324 278 278 14 23 357 332 307 269 252 296 255 274 297 27 299 294 327 318 340 321 308 309 301 298 276 271 293 302 317 310 253 239 254 264 298 254 264 215
357 343 358 259 323 325 304 258 321 8 349 330 313 302 337 336 350 309 299 321 341 322 304 297 289 297 298 298 281 290 287 257 251 273 281 261 282 279 273 265 250 248 238 84 44
351 308 126 149 330 324 272 275 292 8 352 322 300 320 331 323 319 326 313 328 330 334 303 306 300 300 305 294 282 275 282 273 257 276 254 278 249 252 271 268 231 249 261 171 149
351 252 125 335 312 263 275 294 333 349 330 318 322 309 313 319 327 319 316 327 2 349 339 314 320 308 302 282 299 272 286 248 248 245 277 288 267 6 304 288 270 228 223 148 176
326 303 34 340 252 249 267 9 303 299 313 295 292 290 307 315 313 304 304 322 351 343 328 333 287 284 298 290 19 4 300 23 214 267 289 255 279 272 335 334 288 216 175 149 153
319 306 71 21 300 325 324 319 313 322 311 313 298 299 315 305 316 308 305 312 339 323 319 321 295 306 295 272 29 357 302 297 333 274 266 264 281 357 354 345 340 52 101 111 78
311 340 352 314 308 304 332 309 325 321 277 300 318 301 313 321 305 285 299 339 302 310 300 274 269 267 282 286 269 252 275 279 199 253 267 283 297 358 355 337 322 323 169 110 96
345 0 15 304 324 332 308 300 289 301 326 310 281 300 319 312 302 299 305 316 311 316 305 243 274 283 280 280 278 265 264 271 269 262 274 281 298 346 202 299 291 299 297 354 289
358 353 337 303 310 282 323 303 328 347 334 307 298 314 314 298 292 294 296 298 298 299 304 299 283 303 293 289 284 318 299 299 291 293 277 280 283 287 147 192 256 264 296 298 287
358 345 337 297 290 300 313 317 307 317 307 293 333 316 300 293 294 300 286 280 279 284 285 284 275 293 286 294 312 308 113 347 327 319 324 344 351 346 333 276 309 326 334 324 322
Height
1516 1513 1511 1509 1506 1503 1501 1498 1497 1495 1494 1491 1489 1487 1485 1482 1480 1479 1479 1478 1479 1479 1479 1480 1482 1485 1487 1486 1485 1483 1483 1476 1470 1465 1457 1451 1452 1449 1447 1443 1440 1439 1441 1443 1446
1516 1513 1511 1508 1506 1503 1500 1498 1496 1494 1493 1490 1488 1485 1483 1479 1476 1477 1477 1478 1479 1478 1478 1482 1481 1481 1481 1479 1480 1476 1471 1465 1462 1456 1451 1450 1448 1452 1450 1446 1442 1439 1441 1445 1448
1515 1513 1510 1508 1505 1503 1500 1497 1495 1493 1491 1489 1487 1484 1481 1478 1475 1474 1476 1477 1477 1476 1477 1480 1480 1478 1477 1475 1471 1466 1457 1460 1457 1457 1455 1450 1448 1450 1449 1446 1442 1440 1441 1444 1450
1515 1512 1509 1507 1504 1502 1499 1497 1495 1493 1490 1488 1486 1483 1481 1478 1474 1474 1476 1476 1475 1475 1476 1477 1476 1475 1474 1469 1466 1462 1454 1455 1455 1455 1453 1450 1447 1447 1449 1446 1441 1442 1441 1443 1448
1514 1511 1508 1505 1502 1500 1498 1495 1493 1491 1490 1487 1485 1482 1481 1480 1477 1475 1476 1476 1476 1478 1478 1476 1474 1471 1465 1460 1461 1452 1453 1451 1452 1452 1449 1448 1443 1445 1447 1447 1443 1439 1438 1437 1443
1514 1510 1507 1504 1501 1498 1496 1494 1491 1489 1488 1486 1484 1482 1481 1480 1477 1478 1477 1477 1477 1477 1476 1475 1472 1470 1462 1458 1453 1452 1447 1445 1447 1444 1441 1442 1438 1442 1436 1443 1442 1438 1434 1436 1446
1512 1509 1505 1502 1499 1496 1494 1491 1489 1487 1486 1484 1483 1481 1481 1478 1476 1477 1476 1476 1474 1473 1473 1471 1470 1469 1464 1459 1455 1453 1447 1443 1436 1436 1432 1438 1433 1430 1434 1438 1438 1438 1435 1432 1433
1511 1507 1503 1500 1497 1494 1491 1489 1487 1485 1483 1482 1481 1480 1478 1474 1475 1475 1475 1473 1472 1471 1471 1470 1470 1470 1469 1466 1460 1456 1449 1444 1425 1433 1427 1435 1428 1421 1430 1432 1433 1436 1434 1430 1429
1510 1506 1502 1498 1495 1492 1489 1487 1485 1483 1481 1480 1480 1479 1472 1473 1474 1474 1474 1472 1471 1469 1468 1467 1468 1469 1468 1463 1457 1447 1448 1440 1426 1423 1421 1428 1420 1413 1422 1424 1426 1429 1429 1429 1427
1509 1504 1499 1495 1492 1490 1487 1485 1482 1482 1481 1480 1480 1483 1473 1471 1472 1472 1471 1470 1469 1468 1466 1462 1461 1459 1456 1455 1454 1444 1436 1426 1423 1419 1420 1414 1408 1403 1410 1413 1416 1421 1423 1422 1422
1507 1502 1497 1493 1490 1489 1487 1484 1484 1484 1482 1476 1473 1471 1471 1471 1472 1471 1468 1469 1467 1466 1461 1457 1457 1453 1445 1441 1437 1435 1433 1427 1418 1416 1418 1412 1404 1393 1397 1404 1405 1408 1414 1414 1414
1505 1500 1496 1492 1489 1488 1487 1486 1487 1487 1478 1472 1470 1470 1470 1471 1471 1468 1468 1469 1465 1462 1458 1456 1452 1444 1440 1438 1437 1438 1437 1430 1423 1422 1425 1417 1405 1394 1388 1387 1391 1397 1401 1406 1406
1503 1499 1495 1492 1490 1489 1488 1488 1487 1485 1479 1464 1466 1466 1468 1469 1467 1466 1466 1465 1462 1459 1457 1456 1450 1443 1440 1437 1436 1431 1431 1430 1429 1423 1423 1418 1407 1395 1384 1383 1381 1381 1387 1394 1398
1501 1498 1494 1493 1492 1490 1488 1488 1486 1484 1475 1462 1463 1464 1466 1465 1462 1462 1463 1465 1464 1460 1454 1451 1445 1442 1439 1436 1431 1430 1424 1422 1422 1424 1428 1417 1411 1395 1384 1381 1376 1371 1372 1380 1388
1500 1496 1493 1492 1491 1490 1489 1487 1485 1483 1472 1458 1458 1464 1464 1464 1459 1455 1459 1462 1458 1453 1451 1447 1443 1441 1442 1437 1431 1427 1420 1420 1419 1418 1417 1415 1413 1393 1384 1376 1369 1366 1367 1368 1376
1498 1494 1492 1492 1491 1491 1488 1486 1484 1480 1470 1454 1457 1458 1457 1454 1453 1454 1454 1454 1448 1442 1438 1440 1443 1442 1437 1433 1428 1418 1421 1422 1421 1420 1420 1407 1409 1389 1386 1372 1365 1359 1362 1362 1367
1494 1491 1491 1491 1492 1490 1487 1485 1479 1468 1449 1453 1455 1455 1455 1451 1449 1449 1452 1446 1442 1449 1446 1444 1436 1441 1444 1430 1423 1416 1422 1430 1426 1421 1409 1397 1398 1380 1377 1369 1362 1355 1353 1354 1358
1491 1489 1489 1490 1492 1490 1488 1484 1480 1449 1454 1457 1458 1456 1449 1442 1446 1447 1444 1439 1436 1445 1447 1448 1449 1440 1433 1434 1429 1423 1423 1437 1444 1435 1422 1403 1406 1370 1367 1362 1356 1353 1345 1340 1346
1490 1489 1488 1490 1491 1490 1489 1480 1465 1462 1464 1466 1461 1449 1447 1442 1446 1447 1441 1440 1441 1440 1448 1447 1442 1435 1430 1426 1426 1421 1423 1416 1426 1423 1423 1410 1401 1378 1365 1352 1356 1351 1346 1346 1349
1489 1488 1489 1490 1490 1490 1487 1477 1465 1464 1467 1468 1466 1455 1458 1454 1453 1449 1444 1438 1440 1444 1444 1442 1441 1432 1426 1421 1421 1417 1414 1421 1431 1432 1425 1397 1388 1380 1367 1352 1350 1350 1345 1346 1352
1491 1488 1489 1489 1489 1488 1485 1472 1466 1470 1472 1472 1468 1467 1461 1460 1456 1454 1450 1443 1447 1450 1450 1443 1442 1439 1429 1418 1415 1411 1404 1403 1406 1412 1407 1407 1376 1368 1368 1353 1348 1349 1344 1347 1352
1492 1486 1490 1489 1488 1481 1474 1470 1474 1470 1470 1469 1468 1465 1462 1461 1458 1457 1454 1448 1453 1452 1448 1445 1446 1440 1430 1417 1422 1426 1409 1416 1430 1413 1402 1405 1381 1370 1370 1355 1350 1339 1342 1348 1352
1494 1488 1488 1488 1484 1480 1475 1470 1467 1468 1469 1468 1466 1462 1462 1460 1463 1459 1454 1452 1455 1455 1455 1458 1444 1442 1427 1416 1432 1436 1421 1416 1418 1411 1400 1393 1381 1369 1375 1373 1372 1342 1343 1350 1354
1498 1490 1487 1487 1485 1483 1479 1474 1467 1467 1467 1469 1468 1466 1461 1460 1458 1455 1450 1452 1456 1455 1453 1453 1446 1444 1445 1433 1429 1435 1417 1407 1410 1405 1389 1380 1373 1391 1398 1405 1382 1368 1348 1351 1357
1501 1494 1496 1489 1487 1487 1487 1480 1470 1464 1463 1465 1464 1464 1464 1465 1460 1456 1451 1450 1448 1449 1446 1447 1446 1436 1428 1422 1415 1408 1409 1398 1386 1368 1376 1378 1376 1377 1394 1405 1392 1381 1364 1356 1356
1508 1507 1502 1497 1489 1485 1483 1475 1472 1470 1475 1472 1469 1465 1468 1468 1466 1458 1453 1450 1450 1447 1443 1445 1441 1433 1424 1415 1405 1405 1396 1378 1368 1362 1356 1367 1372 1366 1381 1389 1382 1375 1363 1355 1355
1511 1511 1509 1499 1488 1480 1476 1478 1477 1477 1476 1471 1468 1468 1464 1462 1456 1451 1449 1443 1442 1443 1445 1445 1439 1435 1423 1412 1404 1403 1398 1396 1386 1384 1367 1374 1380 1370 1371 1375 1373 1361 1361 1360 1357